Location: Chittendens Corners
(41.2320°N, 81.4940°W)
Time: 08:31:36
(UTC+00:00)

Cosmos 1408 - Pass Details

Date: 29 October 2020
Orbit: 470 x 492 km, 82.6° (Epoch: 28 November)

Event Time Altitude Azimuth Distance (km) Brightness Sun altitude
Rises 22:56:52 0° 10° (N) 2,558 6.0 -6.7°
Reaches altitude 10° 22:59:37 10° 33° (NNE) 1,677 4.9 -7.2°
Maximum altitude 23:01:58 16° 73° (ENE) 1,343 4.1 -7.7°
Drops below altitude 10° 23:04:18 10° 113° (ESE) 1,676 4.8 -8.1°
Sets 23:07:02 0° 135° (SE) 2,555 5.9 -8.6°
